Pagina principale
METAR-TAF:

METAR-TAF

Aeroporti :

Dübendorf, Svizzera

latitudine: 47-23-55N, longitudine: 8-38-53E, altezza: 448 m

Osservazione

Il bollettino è stato emesso 21 minuti fa, alle 10:20 UTC
Vento 4 kt da nord-ovest, variando fra ovest e nord
Temperature 18°C
Umidità 59%
Pressione 1014 hPa
Visibilità 10 km o più

METAR: LSMD 151020Z AUTO 32004KT 280V010 9999NDV NCD 18/10 Q1014 RMK

Ora: 12:41 (10:41 UTC)


TAF: mancante

Osservazioni e previsioni meteorologiche di più di 4000 aeroporti (messaggi METAR e TAF).

Le stazioni disponibili sono rappresentate dai dischi gialli e rossi sulla carta.

Puntare il mouse per vedere il nome della stazione.

Clicca sopra per visualizzare le osservazioni e previsioni meteorologiche.

Per cambiare la mappa : fare clic sui pulsanti verdi con una croce nera per ingrandire, il pulsante verde con un trattino per diminuire, o sulla freccia verde per le mappe adiacenti.


METAR-TAF: